• In Netherlands
  • List of Countries
  • For 7 days
  • Water Temperature
  • Satellite Maps
  • Weather Map
  • Weather Widgets
  • user-avatar
    Login

    Hourly Weather Oran

    Today, 21 February, Tuesday

    Time Temperature Precipitation Wind Pressure Humidity
    00:00 +12°C° 0 mm 9 mps 753 mmHg 64%
    01:00 +11°C° 0 mm 9 mps 753 mmHg 65%
    02:00 +11°C° 0 mm 8 mps 753 mmHg 66%
    03:00 +11°C° 0 mm 8 mps 753 mmHg 68%
    04:00 +10°C° 0 mm 7 mps 753 mmHg 68%
    05:00 +10°C° 0 mm 7 mps 753 mmHg 68%
    06:00 +10°C° 0 mm 7 mps 753 mmHg 65%
    07:00 +12°C° 0 mm 7 mps 753 mmHg 61%
    08:00 +14°C° 0 mm 7 mps 753 mmHg 56%
    09:00 +16°C° 0 mm 7 mps 753 mmHg 52%
    10:00 +18°C° 0 mm 7 mps 753 mmHg 48%
    11:00 +21°C° 0 mm 7 mps 753 mmHg 44%
    12:00 +23°C° 0 mm 8 mps 753 mmHg 40%
    13:00 +23°C° 0 mm 8 mps 752 mmHg 41%
    14:00 +24°C° 0 mm 9 mps 752 mmHg 41%
    15:00 +24°C° 0 mm 9 mps 751 mmHg 42%
    16:00 +22°C° 0 mm 9 mps 751 mmHg 51%
    17:00 +18°C° 0 mm 8 mps 751 mmHg 61%
    18:00 +16°C° 0 mm 8 mps 752 mmHg 71%
    19:00 +15°C° 0 mm 7 mps 752 mmHg 70%
    20:00 +15°C° 0 mm 7 mps 752 mmHg 69%
    21:00 +14°C° 0 mm 6 mps 752 mmHg 68%
    22:00 +14°C° 0 mm 6 mps 753 mmHg 67%
    23:00 +14°C° 0 mm 6 mps 753 mmHg 67%

    Tomorrow, 22 February, Wednesday

    Time Temperature Precipitation Wind Pressure Humidity
    00:00 +14°C° 0 mm 5 mps 753 mmHg 67%
    01:00 +13°C° 0.1 mm 5 mps 752 mmHg 66%
    02:00 +13°C° 0.1 mm 5 mps 752 mmHg 66%
    03:00 +13°C° 0.1 mm 5 mps 752 mmHg 66%
    04:00 +12°C° 0 mm 5 mps 752 mmHg 65%
    05:00 +12°C° 0 mm 5 mps 752 mmHg 64%
    06:00 +12°C° 0 mm 5 mps 752 mmHg 64%
    07:00 +14°C° 0 mm 5 mps 752 mmHg 59%
    08:00 +16°C° 0 mm 5 mps 752 mmHg 55%
    09:00 +19°C° 0 mm 5 mps 752 mmHg 50%
    10:00 +21°C° 0 mm 5 mps 752 mmHg 45%
    11:00 +25°C° 0 mm 5 mps 752 mmHg 39%
    12:00 +27°C° 0 mm 6 mps 752 mmHg 34%
    13:00 +27°C° 0 mm 6 mps 751 mmHg 34%
    14:00 +28°C° 0 mm 7 mps 750 mmHg 34%
    15:00 +28°C° 0 mm 7 mps 750 mmHg 34%
    16:00 +26°C° 0 mm 7 mps 750 mmHg 40%
    17:00 +23°C° 0 mm 7 mps 750 mmHg 46%
    18:00 +21°C° 0 mm 7 mps 750 mmHg 53%
    19:00 +21°C° 0.2 mm 8 mps 750 mmHg 51%
    20:00 +21°C° 0.2 mm 9 mps 750 mmHg 49%
    21:00 +21°C° 0.2 mm 9 mps 750 mmHg 48%
    22:00 +19°C° 0 mm 9 mps 750 mmHg 47%
    23:00 +19°C° 0 mm 9 mps 749 mmHg 47%

    Day after tomorrow, 23 February, Thursday

    Time Temperature Precipitation Wind Pressure Humidity
    00:00 +20°C° 0 mm 8 mps 749 mmHg 47%
    01:00 +18°C° 0 mm 7 mps 749 mmHg 48%
    02:00 +19°C° 0 mm 6 mps 749 mmHg 49%
    03:00 +19°C° 0 mm 5 mps 748 mmHg 50%
    04:00 +18°C° 0.1 mm 4 mps 748 mmHg 56%
    05:00 +17°C° 0.1 mm 4 mps 748 mmHg 63%
    06:00 +15°C° 0.1 mm 4 mps 748 mmHg 69%
    07:00 +17°C° 0 mm 4 mps 748 mmHg 67%
    08:00 +17°C° 0 mm 5 mps 748 mmHg 65%
    09:00 +19°C° 0 mm 5 mps 749 mmHg 62%
    10:00 +21°C° 0 mm 5 mps 748 mmHg 57%
    11:00 +22°C° 0 mm 5 mps 748 mmHg 51%
    12:00 +23°C° 0 mm 5 mps 748 mmHg 46%
    13:00 +22°C° 0 mm 6 mps 747 mmHg 51%
    14:00 +21°C° 0 mm 6 mps 747 mmHg 57%
    15:00 +20°C° 0 mm 6 mps 747 mmHg 62%
    16:00 +19°C° 0.1 mm 5 mps 747 mmHg 70%
    17:00 +16°C° 0.1 mm 5 mps 747 mmHg 77%
    18:00 +15°C° 0.1 mm 4 mps 748 mmHg 85%
    19:00 +14°C° 0 mm 4 mps 748 mmHg 87%
    20:00 +13°C° 0 mm 4 mps 749 mmHg 90%
    21:00 +13°C° 0 mm 4 mps 749 mmHg 92%
    22:00 +12°C° 0 mm 3 mps 749 mmHg 92%
    23:00 +12°C° 0 mm 3 mps 749 mmHg 92%

    24 February, Friday

    Time Temperature Precipitation Wind Pressure Humidity
    00:00 +12°C° 0 mm 3 mps 750 mmHg 92%
    01:00 +12°C° 0 mm 3 mps 750 mmHg 92%
    02:00 +11°C° 0 mm 3 mps 749 mmHg 91%
    03:00 +11°C° 0 mm 3 mps 749 mmHg 91%
    04:00 +11°C° 0.1 mm 4 mps 750 mmHg 89%
    05:00 +11°C° 0.1 mm 4 mps 750 mmHg 88%
    06:00 +11°C° 0.1 mm 4 mps 750 mmHg 87%
    07:00 +13°C° 0.2 mm 4 mps 750 mmHg 79%
    08:00 +15°C° 0.2 mm 4 mps 751 mmHg 71%
    09:00 +17°C° 0.2 mm 4 mps 751 mmHg 63%
    10:00 +18°C° 0.1 mm 4 mps 751 mmHg 61%
    11:00 +19°C° 0.1 mm 5 mps 751 mmHg 59%
    12:00 +20°C° 0.1 mm 5 mps 751 mmHg 56%
    13:00 +20°C° 0.1 mm 5 mps 751 mmHg 59%
    14:00 +19°C° 0.1 mm 5 mps 751 mmHg 61%
    15:00 +19°C° 0.1 mm 5 mps 751 mmHg 63%
    16:00 +17°C° 0 mm 4 mps 751 mmHg 72%
    17:00 +16°C° 0 mm 3 mps 752 mmHg 81%
    18:00 +14°C° 0 mm 1 mps 752 mmHg 90%
    19:00 +13°C° 0 mm 1 mps 753 mmHg 90%
    20:00 +13°C° 0 mm 1 mps 754 mmHg 91%
    21:00 +12°C° 0 mm 1 mps 754 mmHg 91%
    22:00 +12°C° 0 mm 1 mps 754 mmHg 91%
    23:00 +12°C° 0 mm 1 mps 755 mmHg 90%

    25 February, Saturday

    Time Temperature Precipitation Wind Pressure Humidity
    00:00 +12°C° 0 mm 1 mps 755 mmHg 90%
    01:00 +11°C° 0 mm 1 mps 755 mmHg 90%
    02:00 +11°C° 0 mm 1 mps 755 mmHg 90%
    03:00 +11°C° 0 mm 1 mps 754 mmHg 90%
    04:00 +11°C° 0.1 mm 1 mps 755 mmHg 89%
    05:00 +11°C° 0.1 mm 1 mps 755 mmHg 89%
    06:00 +11°C° 0.1 mm 1 mps 755 mmHg 88%
    07:00 +13°C° 0 mm 1 mps 755 mmHg 82%
    08:00 +15°C° 0 mm 1 mps 756 mmHg 75%
    09:00 +18°C° 0 mm 1 mps 756 mmHg 69%
    10:00 +19°C° 0 mm 1 mps 756 mmHg 65%
    11:00 +20°C° 0 mm 1 mps 756 mmHg 61%
    12:00 +21°C° 0 mm 1 mps 756 mmHg 57%
    13:00 +20°C° 0.1 mm 2 mps 756 mmHg 58%
    14:00 +20°C° 0.1 mm 3 mps 755 mmHg 60%
    15:00 +20°C° 0.1 mm 3 mps 755 mmHg 61%
    16:00 +18°C° 0 mm 3 mps 755 mmHg 70%
    17:00 +16°C° 0 mm 3 mps 755 mmHg 79%
    18:00 +14°C° 0 mm 3 mps 755 mmHg 89%
    19:00 +14°C° 0 mm 2 mps 756 mmHg 90%
    20:00 +13°C° 0 mm 2 mps 756 mmHg 91%
    21:00 +12°C° 0 mm 2 mps 756 mmHg 92%
    22:00 +12°C° 0 mm 2 mps 756 mmHg 91%
    23:00 +12°C° 0 mm 2 mps 756 mmHg 91%

    26 February, Sunday

    Time Temperature Precipitation Wind Pressure Humidity
    00:00 +11°C° 0 mm 1 mps 756 mmHg 91%
    01:00 +11°C° 0 mm 1 mps 756 mmHg 91%
    02:00 +11°C° 0 mm 1 mps 756 mmHg 90%
    03:00 +10°C° 0 mm 1 mps 756 mmHg 90%
    04:00 +10°C° 0 mm 1 mps 756 mmHg 90%
    05:00 +10°C° 0 mm 1 mps 756 mmHg 90%
    06:00 +10°C° 0 mm 1 mps 756 mmHg 89%
    07:00 +12°C° 0 mm 1 mps 756 mmHg 81%
    08:00 +15°C° 0 mm 1 mps 756 mmHg 72%
    09:00 +19°C° 0 mm 1 mps 757 mmHg 64%
    10:00 +19°C° 0 mm 2 mps 756 mmHg 58%
    11:00 +20°C° 0 mm 2 mps 756 mmHg 53%
    12:00 +21°C° 0 mm 2 mps 756 mmHg 48%
    13:00 +21°C° 0 mm 3 mps 755 mmHg 49%
    14:00 +21°C° 0 mm 3 mps 755 mmHg 50%
    15:00 +21°C° 0 mm 4 mps 754 mmHg 51%
    16:00 +19°C° 0 mm 3 mps 754 mmHg 62%
    17:00 +17°C° 0 mm 3 mps 754 mmHg 74%
    18:00 +14°C° 0 mm 3 mps 754 mmHg 86%
    19:00 +14°C° 0 mm 2 mps 754 mmHg 87%
    20:00 +13°C° 0 mm 2 mps 754 mmHg 88%
    21:00 +12°C° 0 mm 2 mps 755 mmHg 90%
    22:00 +11°C° 0 mm 1 mps 754 mmHg 89%
    23:00 +11°C° 0 mm 1 mps 754 mmHg 89%
    Show more